Time,TemperatureF,DewpointF,PressureIn,WindDirection,WindDirectionDegrees,WindSpeedMPH,WindSpeedGustMPH,Humidity,HourlyPrecipIn,Conditions,Clouds,dailyrainin,SoftwareType,DateUTC
2013-06-27 00:09:00,68.3,63.0,29.77,West,277,0.0,-999.0,84,-99.99,,,0.00,weatherlink.com 1.10,2013-06-27 04:09:00,
2013-06-27 00:24:00,67.7,63.0,29.77,West,277,0.0,-999.0,86,-99.99,,,0.00,weatherlink.com 1.10,2013-06-27 04:24:00,
2013-06-27 00:39:00,67.3,63.0,29.77,West,277,1.0,-999.0,87,-99.99,,,0.00,weatherlink.com 1.10,2013-06-27 04:39:00,
2013-06-27 00:54:00,67.1,64.0,29.77,West,277,0.0,-999.0,88,-99.99,,,0.00,weatherlink.com 1.10,2013-06-27 04:54:00,
2013-06-27 01:09:00,67.6,64.0,29.76,West,277,0.0,-999.0,88,-99.99,,,0.00,weatherlink.com 1.10,2013-06-27 05:09:00,
2013-06-27 01:24:00,67.7,64.0,29.77,West,277,0.0,-999.0,88,-99.99,,,0.00,weatherlink.com 1.10,2013-06-27 05:24:00,
2013-06-27 01:39:00,67.9,65.0,29.76,West,277,0.0,-999.0,89,-99.99,,,0.00,weatherlink.com 1.10,2013-06-27 05:39:00,
2013-06-27 01:54:00,68.0,64.0,29.75,West,277,0.0,-999.0,88,-99.99,,,0.00,weatherlink.com 1.10,2013-06-27 05:54:00,
2013-06-27 02:09:00,67.9,64.0,29.75,West,277,0.0,-999.0,88,-99.99,,,0.00,weatherlink.com 1.10,2013-06-27 06:09:00,
2013-06-27 02:24:00,67.3,64.0,29.75,West,277,0.0,-999.0,89,-99.99,,,0.00,weatherlink.com 1.10,2013-06-27 06:24:00,
2013-06-27 02:39:00,66.8,64.0,29.75,West,277,0.0,-999.0,90,-99.99,,,0.00,weatherlink.com 1.10,2013-06-27 06:39:00,
2013-06-27 02:54:00,66.5,64.0,29.75,West,277,0.0,-999.0,90,-99.99,,,0.00,weatherlink.com 1.10,2013-06-27 06:54:00,
2013-06-27 03:09:00,66.3,64.0,29.75,West,277,0.0,-999.0,91,-99.99,,,0.00,weatherlink.com 1.10,2013-06-27 07:09:00,
2013-06-27 03:24:00,66.0,63.0,29.74,West,277,0.0,-999.0,91,-99.99,,,0.00,weatherlink.com 1.10,2013-06-27 07:24:00,
2013-06-27 03:39:00,65.7,63.0,29.74,West,277,0.0,-999.0,91,-99.99,,,0.00,weatherlink.com 1.10,2013-06-27 07:39:00,
2013-06-27 03:54:00,65.4,63.0,29.74,West,277,0.0,-999.0,92,-99.99,,,0.00,weatherlink.com 1.10,2013-06-27 07:54:00,
2013-06-27 04:09:00,65.2,63.0,29.74,West,277,0.0,-999.0,93,-99.99,,,0.00,weatherlink.com 1.10,2013-06-27 08:09:00,
2013-06-27 04:24:00,65.1,63.0,29.74,West,277,0.0,-999.0,93,-99.99,,,0.00,weatherlink.com 1.10,2013-06-27 08:24:00,
2013-06-27 04:39:00,65.1,63.0,29.74,West,277,0.0,-999.0,94,-99.99,,,0.00,weatherlink.com 1.10,2013-06-27 08:39:00,
2013-06-27 04:54:00,65.1,63.0,29.74,West,277,0.0,-999.0,94,-99.99,,,0.00,weatherlink.com 1.10,2013-06-27 08:54:00,
2013-06-27 05:09:00,65.0,63.0,29.74,West,277,0.0,-999.0,94,-99.99,,,0.00,weatherlink.com 1.10,2013-06-27 09:09:00,
2013-06-27 05:24:00,65.0,63.0,29.74,West,277,0.0,-999.0,94,-99.99,,,0.00,weatherlink.com 1.10,2013-06-27 09:24:00,
2013-06-27 05:39:00,64.8,63.0,29.74,West,277,0.0,-999.0,94,-99.99,,,0.00,weatherlink.com 1.10,2013-06-27 09:39:00,
2013-06-27 05:54:00,64.8,63.0,29.74,West,277,0.0,-999.0,95,-99.99,,,0.00,weatherlink.com 1.10,2013-06-27 09:54:00,
2013-06-27 06:09:00,64.8,63.0,29.74,West,277,0.0,-999.0,95,-99.99,,,0.00,weatherlink.com 1.10,2013-06-27 10:09:00,
2013-06-27 06:24:00,64.9,64.0,29.74,West,277,0.0,-999.0,95,-99.99,,,0.00,weatherlink.com 1.10,2013-06-27 10:24:00,
2013-06-27 06:39:00,65.3,64.0,29.74,West,277,0.0,-999.0,95,-99.99,,,0.00,weatherlink.com 1.10,2013-06-27 10:39:00,
2013-06-27 06:54:00,66.0,65.0,29.74,West,277,0.0,-999.0,95,-99.99,,,0.00,weatherlink.com 1.10,2013-06-27 10:54:00,
2013-06-27 07:09:00,66.7,65.0,29.73,West,277,0.0,-999.0,95,-99.99,,,0.00,weatherlink.com 1.10,2013-06-27 11:09:00,
2013-06-27 07:24:00,67.4,66.0,29.73,West,277,0.0,-999.0,95,-99.99,,,0.00,weatherlink.com 1.10,2013-06-27 11:24:00,
2013-06-27 07:39:00,68.1,67.0,29.73,West,277,0.0,-999.0,95,-99.99,,,0.00,weatherlink.com 1.10,2013-06-27 11:39:00,
2013-06-27 07:54:00,69.5,68.0,29.73,West,277,0.0,-999.0,95,-99.99,,,0.00,weatherlink.com 1.10,2013-06-27 11:54:00,
2013-06-27 08:09:00,70.8,69.0,29.73,West,277,0.0,-999.0,93,-99.99,,,0.00,weatherlink.com 1.10,2013-06-27 12:09:00,
2013-06-27 08:24:00,72.3,69.0,29.72,West,277,0.0,-999.0,90,-99.99,,,0.00,weatherlink.com 1.10,2013-06-27 12:24:00,
2013-06-27 08:39:00,73.5,70.0,29.72,West,279,0.0,-999.0,88,-99.99,,,0.00,weatherlink.com 1.10,2013-06-27 12:39:00,
2013-06-27 08:54:00,74.3,70.0,29.72,West,278,0.0,-999.0,86,-99.99,,,0.00,weatherlink.com 1.10,2013-06-27 12:54:00,
2013-06-27 09:09:00,75.2,71.0,29.72,ESE,107,1.0,-999.0,85,-99.99,,,0.00,weatherlink.com 1.10,2013-06-27 13:09:00,
2013-06-27 09:24:00,75.1,70.0,29.72,East,96,0.0,-999.0,84,-99.99,,,0.00,weatherlink.com 1.10,2013-06-27 13:24:00,
2013-06-27 09:39:00,75.7,70.0,29.72,ENE,78,2.0,-999.0,83,-99.99,,,0.00,weatherlink.com 1.10,2013-06-27 13:39:00,
2013-06-27 09:54:00,76.3,71.0,29.71,East,86,0.0,-999.0,83,-99.99,,,0.00,weatherlink.com 1.10,2013-06-27 13:54:00,
2013-06-27 10:09:00,76.6,70.0,29.71,East,85,0.0,-999.0,81,-99.99,,,0.00,weatherlink.com 1.10,2013-06-27 14:09:00,
2013-06-27 10:24:00,76.6,71.0,29.70,East,85,0.0,-999.0,82,-99.99,,,0.00,weatherlink.com 1.10,2013-06-27 14:24:00,
2013-06-27 10:39:00,76.1,70.0,29.70,East,84,0.0,-999.0,82,-99.99,,,0.00,weatherlink.com 1.10,2013-06-27 14:39:00,
2013-06-27 10:54:00,76.4,71.0,29.70,East,84,0.0,-999.0,82,-99.99,,,0.00,weatherlink.com 1.10,2013-06-27 14:54:00,
2013-06-27 11:09:00,76.9,71.0,29.70,East,85,0.0,-999.0,82,-99.99,,,0.00,weatherlink.com 1.10,2013-06-27 15:09:00,
2013-06-27 11:24:00,77.7,71.0,29.70,East,85,0.0,-999.0,81,-99.99,,,0.00,weatherlink.com 1.10,2013-06-27 15:24:00,
2013-06-27 11:39:00,78.5,72.0,29.70,ESE,105,0.0,-999.0,80,-99.99,,,0.00,weatherlink.com 1.10,2013-06-27 15:39:00,
2013-06-27 11:54:00,78.7,71.0,29.70,ESE,105,0.0,-999.0,78,-99.99,,,0.00,weatherlink.com 1.10,2013-06-27 15:54:00,
2013-06-27 12:09:00,79.4,72.0,29.70,SE,136,0.0,-999.0,77,-99.99,,,0.00,weatherlink.com 1.10,2013-06-27 16:09:00,
2013-06-27 12:24:00,79.8,72.0,29.69,SE,136,0.0,-999.0,76,-99.99,,,0.00,weatherlink.com 1.10,2013-06-27 16:24:00,
2013-06-27 12:39:00,79.8,70.0,29.70,East,98,0.0,-999.0,72,-99.99,,,0.00,weatherlink.com 1.10,2013-06-27 16:39:00,
2013-06-27 12:54:00,79.6,71.0,29.69,East,98,0.0,-999.0,74,-99.99,,,0.00,weatherlink.com 1.10,2013-06-27 16:54:00,
2013-06-27 13:09:00,79.5,71.0,29.69,East,98,0.0,-999.0,76,-99.99,,,0.00,weatherlink.com 1.10,2013-06-27 17:09:00,
2013-06-27 13:24:00,78.9,72.0,29.69,East,98,0.0,-999.0,78,-99.99,,,0.00,weatherlink.com 1.10,2013-06-27 17:24:00,
2013-06-27 13:39:00,79.0,72.0,29.69,East,98,0.0,-999.0,78,-99.99,,,0.00,weatherlink.com 1.10,2013-06-27 17:39:00,
2013-06-27 13:54:00,78.7,71.0,29.68,East,98,0.0,-999.0,78,-99.99,,,0.00,weatherlink.com 1.10,2013-06-27 17:54:00,
2013-06-27 14:09:00,78.5,72.0,29.68,East,98,0.0,-999.0,79,-99.99,,,0.00,weatherlink.com 1.10,2013-06-27 18:09:00,
2013-06-27 14:24:00,78.6,72.0,29.67,East,98,0.0,-999.0,80,-99.99,,,0.00,weatherlink.com 1.10,2013-06-27 18:24:00,
2013-06-27 14:39:00,78.8,72.0,29.67,East,98,0.0,-999.0,80,-99.99,,,0.00,weatherlink.com 1.10,2013-06-27 18:39:00,
2013-06-27 14:54:00,76.5,69.0,29.67,SE,130,0.0,-999.0,78,-99.99,,,0.00,weatherlink.com 1.10,2013-06-27 18:54:00,
2013-06-27 15:09:00,75.5,68.0,29.66,NNW,332,0.0,-999.0,77,-99.99,,,0.00,weatherlink.com 1.10,2013-06-27 19:09:00,
2013-06-27 15:24:00,74.8,67.0,29.66,NNW,332,0.0,-999.0,76,-99.99,,,0.00,weatherlink.com 1.10,2013-06-27 19:24:00,
2013-06-27 15:39:00,74.5,67.0,29.66,NNW,332,0.0,-999.0,78,-99.99,,,0.00,weatherlink.com 1.10,2013-06-27 19:39:00,
2013-06-27 15:54:00,74.4,68.0,29.66,NNW,331,0.0,-999.0,80,-99.99,,,0.00,weatherlink.com 1.10,2013-06-27 19:54:00,
2013-06-27 16:09:00,74.0,69.0,29.66,NNW,331,0.0,-999.0,84,-99.99,,,0.01,weatherlink.com 1.10,2013-06-27 20:09:00,
2013-06-27 16:24:00,73.3,69.0,29.64,NNW,332,0.0,-999.0,86,-99.99,,,0.01,weatherlink.com 1.10,2013-06-27 20:24:00,
2013-06-27 16:39:00,72.2,69.0,29.64,NNW,332,0.0,-999.0,88,-99.99,,,0.01,weatherlink.com 1.10,2013-06-27 20:39:00,
2013-06-27 16:54:00,72.0,69.0,29.64,NNE,29,0.0,-999.0,90,-99.99,,,0.01,weatherlink.com 1.10,2013-06-27 20:54:00,
2013-06-27 17:09:00,72.1,69.0,29.64,NNE,29,0.0,-999.0,91,-99.99,,,0.01,weatherlink.com 1.10,2013-06-27 21:09:00,
2013-06-27 17:24:00,72.4,70.0,29.63,NNE,29,0.0,-999.0,92,-99.99,,,0.01,weatherlink.com 1.10,2013-06-27 21:24:00,
2013-06-27 17:39:00,72.6,71.0,29.64,NE,37,0.0,-999.0,93,-99.99,,,0.01,weatherlink.com 1.10,2013-06-27 21:39:00,
2013-06-27 17:54:00,72.8,71.0,29.64,East,91,0.0,-999.0,93,-99.99,,,0.01,weatherlink.com 1.10,2013-06-27 21:54:00,
2013-06-27 18:09:00,71.2,67.0,29.64,ESE,123,0.0,-999.0,86,-99.99,,,0.01,weatherlink.com 1.10,2013-06-27 22:09:00,
2013-06-27 18:24:00,70.8,66.0,29.63,ESE,123,1.0,-999.0,84,-99.99,,,0.01,weatherlink.com 1.10,2013-06-27 22:24:00,
2013-06-27 18:39:00,70.2,63.0,29.63,ESE,123,0.0,-999.0,79,-99.99,,,0.01,weatherlink.com 1.10,2013-06-27 22:39:00,
2013-06-27 19:24:00,70.1,64.0,29.63,ESE,123,0.0,-999.0,82,-99.99,,,0.01,weatherlink.com 1.10,2013-06-27 23:24:00,
2013-06-27 19:39:00,69.9,66.0,29.64,ESE,103,0.0,-999.0,87,-99.99,,,0.09,weatherlink.com 1.10,2013-06-27 23:39:00,
2013-06-27 19:54:00,68.5,65.0,29.64,ESE,105,1.0,-999.0,89,-99.99,,,0.09,weatherlink.com 1.10,2013-06-27 23:54:00,
2013-06-27 20:24:00,67.7,65.0,29.63,NNW,342,0.0,-999.0,92,-99.99,,,0.11,weatherlink.com 1.10,2013-06-28 00:24:00,
2013-06-27 20:39:00,67.2,65.0,29.63,NNW,342,0.0,-999.0,92,-99.99,,,0.12,weatherlink.com 1.10,2013-06-28 00:39:00,
2013-06-27 20:54:00,66.9,65.0,29.62,NNW,341,0.0,-999.0,92,-99.99,,,0.12,weatherlink.com 1.10,2013-06-28 00:54:00,
2013-06-27 21:09:00,66.6,65.0,29.61,NNW,342,0.0,-999.0,93,-99.99,,,0.12,weatherlink.com 1.10,2013-06-28 01:09:00,
2013-06-27 21:24:00,66.3,64.0,29.62,NNW,341,0.0,-999.0,93,-99.99,,,0.12,weatherlink.com 1.10,2013-06-28 01:24:00,
2013-06-27 21:39:00,66.1,64.0,29.62,NNW,341,0.0,-999.0,94,-99.99,,,0.12,weatherlink.com 1.10,2013-06-28 01:39:00,
2013-06-27 21:54:00,66.1,64.0,29.62,NNW,341,0.0,-999.0,94,-99.99,,,0.13,weatherlink.com 1.10,2013-06-28 01:54:00,
2013-06-27 22:09:00,66.0,64.0,29.62,NNW,342,0.0,-999.0,94,-99.99,,,0.13,weatherlink.com 1.10,2013-06-28 02:09:00,
2013-06-27 22:39:00,65.6,64.0,29.63,NNW,341,0.0,-999.0,95,-99.99,,,0.22,weatherlink.com 1.10,2013-06-28 02:39:00,
2013-06-27 22:54:00,65.3,64.0,29.61,NNW,341,0.0,-999.0,95,-99.99,,,0.24,weatherlink.com 1.10,2013-06-28 02:54:00,
2013-06-27 23:09:00,65.2,64.0,29.60,NNW,341,0.0,-999.0,95,-99.99,,,0.24,weatherlink.com 1.10,2013-06-28 03:09:00,
2013-06-27 23:24:00,65.2,64.0,29.61,NNW,342,0.0,-999.0,96,-99.99,,,0.26,weatherlink.com 1.10,2013-06-28 03:24:00,
2013-06-27 23:39:00,65.3,64.0,29.62,ENE,63,0.0,-999.0,96,-99.99,,,0.33,weatherlink.com 1.10,2013-06-28 03:39:00,
2013-06-27 23:55:00,65.3,64.0,29.61,East,92,1.0,-999.0,96,-99.99,,,0.35,weatherlink.com 1.10,2013-06-28 03:55:00,